Starlink 4314

operational
NORAD ID: 53056 Int'l Des: 2022-077 Owner: SPXS Country: US Constellation: starlink
LEOCIRCULARRETROGRADESSO

Starlink 4314について

説明を読み込み中...

リアルタイム位置

3D地球を読み込み中...

次回通過

高度履歴

Altitude vs Time

uPlot chart will show altitude changes over time

軌道要素

1 53056U 22077P 25304.79148163 -.00000344 00000-0 -19649-4 0 9996
2 53056 97.6015 124.1646 0001377 82.7065 277.4318 15.05646128181582
Epoch: Oct 31, 2025 • Age: 11 hours

現在のステータス

高度 575.7 km
速度 7.57 km/s
衛星直下点 -66.71°S, 160.94°E
打ち上げ日 Jul 11, 2022
運用期間 3.3 years
タイプ internet

技術仕様

分類 Payload
質量 297.00 kg
乾燥質量 275.00 kg
総質量 297.00 kg
長さ 0.20 m
直径 2.80 m
スパン 9.00 m
形状 Box + pan
製造者 SPXS
バスタイプ Starlink
フェーズステータス In Orbit
所有者/国 SPXS/US

大規模コンステレーション

Loading constellations...